Location: Fort Worth, Tx
(32.7431°N, 97.3695°W)
Time: 08:54:14
(UTC-05:00)

Explorer 7 - Visible Passes

Search period start: 27 January 2023 00:00
Search period end: 06 February 2023 00:00
Orbit: 480 x 661 km, 50.3° (Epoch: 26 January)

Date Brightness Start Highest point End Pass type
(mag) Time Alt. Az. Time Alt. Az. Time Alt. Az.
27 Jan 9.3 20:59:40 10° NNW 21:01:10 16° N 21:01:10 16° N visible
28 Jan 9.3 19:22:03 10° N 19:23:00 11° NNE 19:23:58 10° NNE visible
28 Jan 9.0 21:00:25 10° NNW 21:02:28 21° N 21:02:28 21° N visible
29 Jan 9.2 19:22:20 10° N 19:24:23 13° NNE 19:26:29 10° NE visible
29 Jan 8.5 21:01:12 10° NW 21:03:53 29° NNW 21:03:53 29° NNW visible
30 Jan 8.9 19:22:51 10° NNW 19:25:42 16° NNE 19:28:36 10° ENE visible
30 Jan 7.9 21:02:03 10° NW 21:05:26 43° NNW 21:05:26 43° NNW visible
31 Jan 8.6 19:23:28 10° NNW 19:26:57 20° NNE 19:30:30 10° ENE visible
31 Jan 7.3 21:02:59 10° NW 21:07:10 68° WNW 21:07:10 68° WNW visible
01 Feb 8.2 19:24:08 10° NNW 19:28:07 27° NNE 19:32:11 10° E visible
01 Feb 7.7 21:04:01 10° WNW 21:08:39 54° SW 21:09:07 51° SSW visible
02 Feb 7.8 19:24:50 10° NNW 19:29:12 37° NE 19:33:39 10° ESE visible
02 Feb 8.7 21:05:14 10° WNW 21:09:30 33° SW 21:11:23 24° S visible
03 Feb 7.3 19:25:36 10° NW 19:30:12 55° NE 19:34:54 10° ESE visible
03 Feb 9.5 21:06:42 10° W 21:10:16 21° SW 21:13:50 10° S visible
04 Feb 7.2 19:26:27 10° NW 19:31:08 85° NE 19:35:55 10° SE visible
04 Feb 10.1 21:08:51 10° W 21:10:58 13° SW 21:13:08 10° SSW visible
05 Feb 7.8 19:27:24 10° NW 19:31:59 61° SW 19:36:42 10° SE visible
